Home   Weather   Albenga   Past weeks

Flag for Italy Past Weather in Albenga, Italy — Yesterday and Last 2 Weeks

Now
51 °F

Passing clouds.


Feels Like: 50 °F
Forecast: 38 / 53 °F
Wind: 5 mph from Northwest

Location: Capo Mele

Current Time: Dec 2, 2016 at 11:33:13 pm

Latest Report: Dec 2, 2016 at 10:00 pm


Visibility: 13 mi

Pressure: 29.99 "Hg

Humidity: 96%

Dew Point: 50 °F

Location of AlbengaLocation

Past Weather in Albenga — Graph

°F

Albenga Temperature Yesterday

Maximum temperature yesterday: 60 °F (at 12:00 pm)
Minimum temperature yesterday: 47 °F (at 8:00 am)
Average temperature yesterday: 52 °F

High & Low Weather Summary for the Past Weeks

 TemperatureHumidityPressure
High61 °F (Nov 28, 3:00 pm)97% (Nov 17, 10:00 pm)30.51 "Hg (Nov 17, 10:00 pm)
Low43 °F (Nov 29, 9:00 pm)30% (Nov 29, 2:00 pm)29.75 "Hg (Nov 19, 4:00 pm)
Average54 °F82%30.06 "Hg
* Reported Nov 17 10:00 pm — Dec 2 10:00 pm, Albenga, Weather by CustomWeather, © 2016

Note: Actual official high and low records may vary slightly from our data, if they occured in-between our weather recording intervals... More about our weather records

Advertising

Albenga Weather History for the Previous 24 Hours

Scroll right to see more
 ConditionsComfort  
Time TempWeatherWind HumidityBarometerVisibility
10:00 pm
Fri, Dec 2
51 °FPassing clouds.5 mph96%29.99 "Hg12 mi
9:00 pm51 °FPassing clouds.6 mph93%29.99 "Hg12 mi
8:00 pm51 °FPassing clouds.6 mph94%29.99 "Hg12 mi
7:00 pm50 °FPassing clouds.5 mph96%29.98 "Hg12 mi
6:00 pm50 °FPassing clouds.5 mph96%29.98 "Hg12 mi
5:00 pm52 °FPassing clouds.6 mph89%29.99 "Hg12 mi
4:00 pm56 °FScattered clouds.7 mph71%29.98 "Hg12 mi
3:00 pm57 °FPassing clouds.5 mph67%29.98 "Hg12 mi
2:00 pm57 °FPassing clouds.5 mph67%30.00 "Hg12 mi
1:00 pm57 °FScattered clouds.3 mph69%30.01 "Hg12 mi
12:00 pm57 °FScattered clouds.2 mph67%30.01 "Hg12 mi
11:00 am53 °FScattered clouds.2 mph78%30.04 "Hg12 mi
10:00 am50 °FPartly sunny.1 mph90%30.05 "Hg12 mi
9:00 am50 °FOvercast.6 mph90%30.05 "Hg12 mi
8:00 am49 °FOvercast.3 mph94%30.05 "Hg12 mi
7:00 am49 °FOvercast.2 mph94%30.06 "Hg31 mi
6:00 am50 °FClear.No wind91%30.08 "Hg31 mi
5:00 am50 °FOvercast.No wind91%30.09 "Hg31 mi
4:00 am50 °FOvercast.No wind93%30.11 "Hg31 mi
3:00 am50 °FOvercast.No wind95%30.13 "Hg31 mi
2:00 am50 °FOvercast.No wind95%30.14 "Hg31 mi
1:00 am50 °FOvercast.No wind95%30.16 "Hg31 mi
12:00 am50 °FOvercast.No wind94%30.17 "Hg31 mi
11:00 pm
Thu, Dec 1
50 °FPassing clouds.No wind94%30.18 "Hg31 mi
Weather by CustomWeather, © 2016

See weather overviewHow to use our weather pages